Flag for Pakistan Weather past 2 weeks in Karachi, Sindh, Pakistan

Now
84 °F

Passing clouds.


Feels Like: 94 °F
Forecast: 84 / 97 °F
Wind: 7 mph from Southwest

Location: Karachi Airport

Current Time: May 31, 2015 at 2:51:35 AM

Latest Report: May 31, 2015 at 1:55 AM


Visibility: 4 mi

Pressure: 29.65 "Hg

Humidity: 79%

Dew point: 77 °F

Location of KarachiLocation

Historic Weather in Karachi — Graph

°F

Karachi temperature yesterday

Maximum temperature yesterday: 97 °F (at 1:25 PM)
Minimum temperature yesterday: 82 °F (at 5:55 AM)
Average temperature yesterday: 89 °F

Past Weeks' High & Low Weather Summary

 TemperatureHumidityPressure
High99 °F (May 24, 11:55 AM)100% (May 18, 6:30 PM)29.74 "Hg (May 18, 6:30 PM)
Low36 °F (May 18, 6:30 PM)27% (May 17, 9:25 AM)29.56 "Hg (May 17, 4:25 PM)
Average89 °F66%29.66 "Hg
* Reported May 16 1:25 AM — May 31 1:25 AM, Karachi, Weather by CustomWeather, © 2015

Note: Actual official high and low records may vary slightly from our data, if they occured in-between our weather recording intervals... More about our weather records

Advertising

Karachi weather history for previous 24 hours

 ConditionsComfort  
Time TempWeatherWind HumidityBarometerVisibility
1:25 AM
Sun, May 31
84 °FPassing clouds.12 mph79%29.68 "Hg4 mi
12:55 AM84 °FPassing clouds.8 mph79%29.68 "Hg4 mi
12:25 AM84 °FPassing clouds.10 mph79%29.68 "Hg4 mi
11:55 PM
Sat, May 30
84 °FPassing clouds.7 mph79%29.71 "Hg4 mi
11:25 PM84 °FPassing clouds.12 mph79%29.71 "Hg4 mi
10:55 PM86 °FPassing clouds.12 mph75%29.71 "Hg4 mi
10:25 PM86 °FPassing clouds.10 mph75%29.71 "Hg4 mi
9:59 PM86 °FPassing clouds.12 mph75%29.71 "Hg4 mi
9:25 PM86 °FPassing clouds.12 mph75%29.71 "Hg3 mi
9:00 PM86 °FPassing clouds.12 mph70%29.68 "Hg2 mi
8:30 PM86 °FPassing clouds.16 mph70%29.68 "Hg4 mi
7:55 PM86 °FPassing clouds.13 mph70%29.68 "Hg4 mi
7:30 PM86 °FPassing clouds.17 mph70%29.68 "Hg4 mi
6:55 PM88 °FScattered clouds.18 mph66%29.65 "Hg4 mi
6:25 PM90 °FScattered clouds.17 mph63%29.65 "Hg4 mi
6:00 PM90 °FScattered clouds.18 mph63%29.65 "Hg4 mi
5:25 PM91 °FScattered clouds.18 mph59%29.65 "Hg4 mi
4:55 PM91 °FScattered clouds.18 mph59%29.65 "Hg4 mi
4:25 PM93 °FScattered clouds.18 mph56%29.65 "Hg4 mi
3:55 PM93 °FClear.18 mph53%29.65 "Hg4 mi
3:30 PM95 °FClear.17 mph50%29.65 "Hg4 mi
2:55 PM95 °FClear.18 mph50%29.68 "Hg4 mi
2:25 PM95 °FClear.20 mph50%29.68 "Hg4 mi
1:55 PM95 °FClear.17 mph47%29.68 "Hg4 mi
1:25 PM97 °FClear.15 mph50%29.71 "Hg4 mi
12:55 PM95 °FClear.17 mph53%29.71 "Hg4 mi
12:25 PM95 °FClear.16 mph53%29.71 "Hg4 mi
11:55 AM95 °FPassing clouds.14 mph53%29.74 "Hg4 mi
11:25 AM93 °FPassing clouds.12 mph53%29.74 "Hg4 mi
10:55 AM93 °FPassing clouds.14 mph53%29.74 "Hg4 mi
10:25 AM91 °FPassing clouds.10 mph59%29.74 "Hg4 mi
9:55 AM91 °FPassing clouds.10 mph59%29.74 "Hg4 mi
9:25 AM90 °FPassing clouds.12 mph63%29.74 "Hg4 mi
8:55 AM88 °FScattered clouds.14 mph66%29.74 "Hg4 mi
8:25 AM86 °FScattered clouds.13 mph70%29.74 "Hg4 mi
7:25 AM84 °FScattered clouds.13 mph79%29.74 "Hg4 mi
6:55 AM84 °FScattered clouds.9 mph79%29.71 "Hg4 mi
6:25 AM82 °FScattered clouds.13 mph79%29.71 "Hg4 mi
5:55 AM82 °FScattered clouds.12 mph79%29.71 "Hg4 mi
4:55 AM84 °FPassing clouds.12 mph74%29.68 "Hg4 mi
4:25 AM84 °FPassing clouds.14 mph74%29.68 "Hg4 mi
3:55 AM86 °FPassing clouds.14 mph70%29.68 "Hg4 mi
3:25 AM86 °FPassing clouds.14 mph70%29.68 "Hg4 mi
2:55 AM86 °FPassing clouds.14 mph70%29.71 "Hg4 mi
2:25 AM86 °FPassing clouds.14 mph70%29.71 "Hg4 mi
Weather by CustomWeather, © 2015

See weather overviewHow to use our weather pages